CT1OY Oeiras PT current weather conditions

sailwx.info

Wind from 226 at 2 knots

Air temperature 12.8° C
Dewpoint 8.6° C

Last reported at 2014-Dec-19 15:45 UTC.
Time now 2014-Dec-19 16:29 UTC

Location: N 38°44' W 009°17'.
View on Google Maps.

See reports from other nearby stations

  
Tides and Currents Weather Stations Pressure Air Temp Water Temp Dewpoint Dewpoint Depression Visibility Wind Speed Wind Dir Waves Ship Positions
date/time (UTC)wind fromknots sea level pressurealtimeterstation pressurevisibilityair tempwater tempwave heightnotes
2014-Dec-19 15:45 226 2 12.8
2014-Dec-19 15:35 253 2 gusting 11 12.8
2014-Dec-19 15:25 306 12.8
2014-Dec-19 15:15 334 12.2
2014-Dec-19 14:55 336 12.2
2014-Dec-19 14:45 302 12.2
2014-Dec-19 14:35 273 2 12.8
2014-Dec-19 14:25 264 12.2
2014-Dec-19 14:15 006 3 12.2
2014-Dec-19 13:55 302 2 12.8
2014-Dec-19 13:45 331 6 12.8
2014-Dec-19 13:35 330 0 12.8
2014-Dec-19 13:25 278 12.8
2014-Dec-19 12:45 262 2 12.8
2014-Dec-19 12:35 251 12.2
2014-Dec-19 12:25 305 5 12.2
2014-Dec-19 12:15 046 3 12.2
2014-Dec-19 11:55 222 12.2
2014-Dec-19 11:45 255 0 12.2
2014-Dec-19 11:35 049 0 11.7
2014-Dec-19 11:25 359 0 gusting 11 11.7
2014-Dec-19 11:15 036 1 11.7
2014-Dec-19 10:55 324 11.1
2014-Dec-19 10:35 314 1 10.6
2014-Dec-19 10:25 025 1 10.6
2014-Dec-19 10:15 296 10.6
2014-Dec-19 09:25 309 9.4
2014-Dec-19 09:15 284 2 8.9
2014-Dec-19 09:05 313 8.9
2014-Dec-19 08:55 314 3 8.9
2014-Dec-19 08:25 330 1 8.3
2014-Dec-19 07:45 020 1 8.3
2014-Dec-19 07:15 294 5 8.9
2014-Dec-19 06:55 004 2 8.9
2014-Dec-19 06:25 046 0 9.4
2014-Dec-19 06:15 344 1 9.4
2014-Dec-19 05:55 276 0 9.4
2014-Dec-19 05:35 011 9.4
2014-Dec-19 05:15 337 4 10.0
2014-Dec-19 05:05 298 1 10.0
2014-Dec-19 04:35 306 10.0
2014-Dec-19 04:15 274 10.0
2014-Dec-19 04:05 270 10.0
2014-Dec-19 03:55 291 10.0
2014-Dec-19 03:25 023 10.0
2014-Dec-19 03:15 314 0 10.0
2014-Dec-19 03:05 029 0 10.0
2014-Dec-19 02:55 349 10.0
2014-Dec-19 02:45 323 1 10.0
2014-Dec-19 02:35 311 0 10.0
2014-Dec-19 02:15 349 4 10.6
2014-Dec-19 02:05 314 10.6
2014-Dec-19 01:55 304 3 10.6
2014-Dec-19 01:45 052 6 gusting 10 10.6
2014-Dec-19 01:25 280 10.6
2014-Dec-19 01:15 271 0 10.6
2014-Dec-19 00:55 005 2 10.6
2014-Dec-19 00:45 308 10.6
2014-Dec-19 00:35 312 10.6
2014-Dec-19 00:25 297 10.0
2014-Dec-19 00:05 234 10.0
2014-Dec-18 23:55 326 10.0
2014-Dec-18 23:45 284 1 10.0
2014-Dec-18 23:35 287 10.0
2014-Dec-18 23:15 035 9 10.0
2014-Dec-18 23:05 304 0 10.0
2014-Dec-18 22:55 003 5 10.0
2014-Dec-18 22:45 311 10.0
2014-Dec-18 22:35 308 0 10.6
2014-Dec-18 22:25 291 0 10.6
2014-Dec-18 22:15 293 4 gusting 13 10.6
2014-Dec-18 22:05 294 10.6
2014-Dec-18 21:55 259 0 10.6
2014-Dec-18 21:45 290 10.6
2014-Dec-18 21:35 322 1 10.0
2014-Dec-18 21:25 311 1 10.0
2014-Dec-18 21:15 297 0 10.0
2014-Dec-18 21:05 318 1 10.0
2014-Dec-18 20:15 003 10.0
2014-Dec-18 19:35 018 10.0
2014-Dec-18 19:05 291 0 10.0
2014-Dec-18 18:55 239 10.0
2014-Dec-18 18:45 261 10.0
2014-Dec-18 18:35 335 0 10.0
2014-Dec-18 18:25 328 10.0
2014-Dec-18 18:15 354 10.6
2014-Dec-18 18:05 279 10.6
2014-Dec-18 17:55 281 10.6
2014-Dec-18 17:15 332 7 11.1
2014-Dec-18 17:05 352 0 gusting 10 11.7
2014-Dec-18 16:55 065 4 gusting 14 11.7
2014-Dec-18 16:45 314 0 gusting 13 11.7
2014-Dec-18 16:35 053 2 gusting 13 12.2
2014-Dec-18 16:25 289 6 gusting 10 12.2
2014-Dec-18 16:05 274 0 gusting 11 12.2
2014-Dec-18 15:55 345 6 gusting 10 12.8
2014-Dec-18 15:35 314 13.3
2014-Dec-18 15:25 274 4 13.3
2014-Dec-18 14:35 360 2 14.4
2014-Dec-18 14:25 278 14.4
2014-Dec-18 14:15 172 3 14.4
2014-Dec-18 14:05 306 2 13.9
2014-Dec-18 13:55 027 6 13.9
2014-Dec-18 13:35 236 2 gusting 11 13.9
2014-Dec-18 13:25 352 4 13.9
2014-Dec-18 12:55 297 6 gusting 13 13.9
2014-Dec-18 12:45 093 4 13.9
2014-Dec-18 12:35 329 2 gusting 11 13.9
2014-Dec-18 12:05 360 3 gusting 11 13.9
2014-Dec-18 11:55 309 6 gusting 13 13.3
2014-Dec-18 11:45 228 2 13.3
2014-Dec-18 11:25 264 13.3
2014-Dec-18 11:05 319 6 gusting 12 13.3
2014-Dec-18 10:25 041 0 12.8
2014-Dec-18 10:15 240 12.8
2014-Dec-18 09:55 323 2 gusting 12 12.2
2014-Dec-18 09:45 352 7 gusting 12 12.2
2014-Dec-18 09:25 251 11.7
2014-Dec-18 09:15 337 0 11.7
2014-Dec-18 08:45 356 1 11.1
2014-Dec-18 08:35 350 11.1
2014-Dec-18 08:25 345 11.1
2014-Dec-18 08:15 096 11.1
2014-Dec-18 08:05 321 10.6
2014-Dec-18 07:55 047 10.6
2014-Dec-18 07:45 349 10.6
2014-Dec-18 07:25 352 1 10.6
2014-Dec-18 06:55 264 0 10.6
2014-Dec-18 05:45 286 10.0
2014-Dec-18 05:25 289 10.6
2014-Dec-18 05:05 312 0 10.6
2014-Dec-18 04:45 329 3 10.6
2014-Dec-18 04:25 012 10.6
2014-Dec-18 04:15 013 1 10.6
2014-Dec-18 04:05 019 0 11.1
2014-Dec-18 03:55 352 11.1
2014-Dec-18 03:35 339 11.1
2014-Dec-18 03:25 091 2 gusting 10 11.1
2014-Dec-18 03:15 260 10.6
2014-Dec-18 02:45 026 0 10.6
2014-Dec-18 02:35 314 10.6
2014-Dec-18 02:25 294 10.6
2014-Dec-18 02:15 019 0 10.6
2014-Dec-18 02:05 284 10.6
2014-Dec-18 01:55 307 11.1
2014-Dec-18 01:45 278 11.1
2014-Dec-18 01:35 269 11.1
2014-Dec-18 01:25 329 11.1
2014-Dec-18 01:05 124 0 11.1
2014-Dec-18 00:55 302 0 gusting 10 11.1
2014-Dec-18 00:35 127 0 gusting 13 11.1
2014-Dec-18 00:25 299 3 gusting 18 11.1
2014-Dec-18 00:15 323 2 11.1
2014-Dec-18 00:05 205 11.1
2014-Dec-17 23:55 322 11.1
2014-Dec-17 23:45 041 11.1
2014-Dec-17 23:35 072 2 11.1
2014-Dec-17 23:25 352 11.1
2014-Dec-17 23:15 079 11.1
2014-Dec-17 23:05 276 11.1
2014-Dec-17 22:55 310 1 11.1
2014-Dec-17 22:45 335 2 11.1
2014-Dec-17 22:25 021 4 gusting 11 11.1
2014-Dec-17 22:15 042 11.1
2014-Dec-17 22:05 055 11.1
2014-Dec-17 21:55 006 11.1
2014-Dec-17 21:45 027 1 11.1
2014-Dec-17 21:25 321 11.1
2014-Dec-17 21:15 356 5 11.1
2014-Dec-17 21:05 013 0 11.1
2014-Dec-17 20:45 347 11.1
2014-Dec-17 20:35 107 11.1
2014-Dec-17 20:25 009 1 11.1
2014-Dec-17 20:05 284 0 11.1
2014-Dec-17 19:25 053 4 11.7
2014-Dec-17 18:55 266 0 11.7
2014-Dec-17 18:45 314 11.7
2014-Dec-17 18:25 308 11.7
2014-Dec-17 18:15 302 11.7
2014-Dec-17 17:55 352 0 gusting 12 12.2
2014-Dec-17 17:45 319 0 gusting 11 12.2
2014-Dec-17 17:35 298 0 gusting 11 12.2
2014-Dec-17 17:25 304 12.8
2014-Dec-17 17:15 347 1 gusting 11 12.8
2014-Dec-17 17:05 003 12.8
2014-Dec-17 16:45 340 1 gusting 15 13.3
2014-Dec-17 16:35 330 8 gusting 10 13.3
2014-Dec-17 16:25 306 0 gusting 13 13.3
2014-Dec-17 16:05 277 2 gusting 12 13.9